Weather in Dobele

Latvia     56˚37′26″N   23˚16′51″E
temp.,
°C
wind,
m/s
gust,
m/s
humid.,
%
clouds,
%
prec.,
mm/h
press.,
hPa
HPBL,
m
2 december, wed
wed223:00−3˚sse369299 0.0 1030212
02:00−3˚sse369394 0.0 1031230
05:00−4˚sse259638 0.0 1030164
08:00−3˚sse369252 0.0 1030245
11:00−3˚sse368741 0.0 1030282
14:00−2˚sse368331 0.0 1028362
17:00−3˚se389098 0.0 1027329
20:00−4˚se399467 0.0 1026366
3 december, thu
thu323:00−4˚se389364 0.0 1025360
02:00−4˚se389565 0.0 1023309
05:00−4˚se389681 0.0 1021327
08:00−4˚se499478 0.0 1020383
11:00−3˚sse598986 0.0 1019593
14:00−1˚sse598393 0.1 1018757
17:00−1˚sse61181100 0.0 1016752
20:00−1˚se61385100 0.0 1015646
4 december, fri
fri423:00−1˚sse61389100 0.1 1015744
02:00sse61488100 0.3 1014787
05:00+1˚se61385100 0.0 1012777
08:00+1˚se71586100 0.0 1012706
11:00+2˚se71485100 0.0 1012780
14:00+2˚se81587100 0.0 1011816
17:00+3˚se81586100 0.0 1010839
20:00+3˚sse81686100 0.0 1010822
5 december, sat
sat523:00+5˚sse71687100 0.0 1010895
02:00+5˚sse81787100 0.0 1011825
05:00+5˚sse71588100 0.0 1011798
08:00+5˚sse71588100 0.0 1013801
11:00+5˚sse71586100 0.0 1014783
14:00+6˚sse71485100 0.0 1014780
17:00+6˚sse71585100 0.0 1015772
20:00+7˚sse71486100 0.0 1016794
6 december, sun
sun623:00+6˚se71386100 0.0 1016806
02:00+6˚se71386100 0.0 1017848
05:00+6˚se71385100 0.0 1017832
08:00+6˚se71385100 0.0 1018788
11:00+5˚se71482100 0.0 1018817
14:00+5˚se71378100 0.0 10181071
17:00+4˚se81379100 0.0 1018951
20:00+3˚se71580100 0.0 1019855